Year,Month,Day,Hour,Minute,Value (Times are PST for temperature in C)
2012,08,06,00,00,25.50
2012,08,06,00,01,25.50
2012,08,06,00,02,25.60
2012,08,06,00,03,25.60
2012,08,06,00,04,25.60
2012,08,06,00,05,25.50
2012,08,06,00,06,25.50
2012,08,06,00,07,25.50
2012,08,06,00,08,25.50
2012,08,06,00,09,25.40
2012,08,06,00,10,25.40
2012,08,06,00,11,25.40
2012,08,06,00,12,25.50
2012,08,06,00,13,25.40
2012,08,06,00,14,25.40
2012,08,06,00,15,25.40
2012,08,06,00,16,25.40
2012,08,06,00,17,25.40
2012,08,06,00,18,25.40
2012,08,06,00,19,25.30
2012,08,06,00,20,25.30
2012,08,06,00,21,25.30
2012,08,06,00,22,25.30
2012,08,06,00,23,25.30
2012,08,06,00,24,25.20
2012,08,06,00,25,25.20
2012,08,06,00,26,25.20
2012,08,06,00,27,25.20
2012,08,06,00,28,25.20
2012,08,06,00,29,25.10
2012,08,06,00,30,25.10
2012,08,06,00,31,25.00
2012,08,06,00,32,25.00
2012,08,06,00,33,24.90
2012,08,06,00,34,24.90
2012,08,06,00,35,24.80
2012,08,06,00,36,24.80
2012,08,06,00,37,24.80
2012,08,06,00,38,24.80
2012,08,06,00,39,24.70
2012,08,06,00,40,24.70
2012,08,06,00,41,24.70
2012,08,06,00,42,24.60
2012,08,06,00,43,24.60
2012,08,06,00,44,24.60
2012,08,06,00,45,24.50
2012,08,06,00,46,24.50
2012,08,06,00,47,24.40
2012,08,06,00,48,24.40
2012,08,06,00,49,24.40
2012,08,06,00,50,24.30
2012,08,06,00,51,24.30
2012,08,06,00,52,24.30
2012,08,06,00,53,24.20
2012,08,06,00,54,24.20
2012,08,06,00,55,24.20
2012,08,06,00,56,24.20
2012,08,06,00,57,24.10
2012,08,06,00,58,24.10
2012,08,06,00,59,24.10
2012,08,06,01,00,24.10
2012,08,06,01,01,24.10
2012,08,06,01,02,24.10
2012,08,06,01,03,24.10
2012,08,06,01,04,24.10
2012,08,06,01,05,24.00
2012,08,06,01,06,24.00
2012,08,06,01,07,24.00
2012,08,06,01,08,23.90
2012,08,06,01,09,23.90
2012,08,06,01,10,23.90
2012,08,06,01,11,23.90
2012,08,06,01,12,23.80
2012,08,06,01,13,23.80
2012,08,06,01,14,23.80
2012,08,06,01,15,23.80
2012,08,06,01,16,23.80
2012,08,06,01,17,23.80
2012,08,06,01,18,23.70
2012,08,06,01,19,23.70
2012,08,06,01,20,23.70
2012,08,06,01,21,23.60
2012,08,06,01,22,23.60
2012,08,06,01,23,23.60
2012,08,06,01,24,23.60
2012,08,06,01,25,23.60
2012,08,06,01,26,23.60
2012,08,06,01,27,23.50
2012,08,06,01,28,23.50
2012,08,06,01,29,23.50
2012,08,06,01,30,23.40
2012,08,06,01,31,23.40
2012,08,06,01,32,23.30
2012,08,06,01,33,23.30
2012,08,06,01,34,23.30
2012,08,06,01,35,23.30
2012,08,06,01,36,23.30
2012,08,06,01,37,23.20
2012,08,06,01,38,23.20
2012,08,06,01,39,23.20
2012,08,06,01,40,23.20
2012,08,06,01,41,23.10
2012,08,06,01,42,23.10
2012,08,06,01,43,23.10
2012,08,06,01,44,23.00
2012,08,06,01,45,23.00
2012,08,06,01,46,22.90
2012,08,06,01,47,22.90
2012,08,06,01,48,22.90
2012,08,06,01,49,22.90
2012,08,06,01,50,22.90
2012,08,06,01,51,22.90
2012,08,06,01,52,22.90
2012,08,06,01,53,22.90
2012,08,06,01,54,22.90
2012,08,06,01,55,22.90
2012,08,06,01,56,22.90
2012,08,06,01,57,22.90
2012,08,06,01,58,22.80
2012,08,06,01,59,22.80
2012,08,06,02,00,22.80
2012,08,06,02,01,22.80
2012,08,06,02,02,22.70
2012,08,06,02,03,22.70
2012,08,06,02,04,22.60
2012,08,06,02,05,22.60
2012,08,06,02,06,22.60
2012,08,06,02,07,22.60
2012,08,06,02,08,22.50
2012,08,06,02,09,22.50
2012,08,06,02,10,22.50
2012,08,06,02,11,22.50
2012,08,06,02,12,22.50
2012,08,06,02,13,22.40
2012,08,06,02,14,22.40
2012,08,06,02,15,22.40
2012,08,06,02,16,22.40
2012,08,06,02,17,22.40
2012,08,06,02,18,22.40
2012,08,06,02,19,22.40
2012,08,06,02,20,22.30
2012,08,06,02,21,22.30
2012,08,06,02,22,22.30
2012,08,06,02,23,22.30
2012,08,06,02,24,22.30
2012,08,06,02,25,22.30
2012,08,06,02,26,22.30
2012,08,06,02,27,22.30
2012,08,06,02,28,22.30
2012,08,06,02,29,22.30
2012,08,06,02,30,22.30
2012,08,06,02,31,22.30
2012,08,06,02,32,22.20
2012,08,06,02,33,22.30
2012,08,06,02,34,22.20
2012,08,06,02,35,22.20
2012,08,06,02,36,22.20
2012,08,06,02,37,22.20
2012,08,06,02,38,22.30
2012,08,06,02,39,22.30
2012,08,06,02,40,22.30
2012,08,06,02,41,22.30
2012,08,06,02,42,22.30
2012,08,06,02,43,22.20
2012,08,06,02,44,22.20
2012,08,06,02,45,22.20
2012,08,06,02,46,22.20
2012,08,06,02,47,22.20
2012,08,06,02,48,22.20
2012,08,06,02,49,22.20
2012,08,06,02,50,22.10
2012,08,06,02,51,22.10
2012,08,06,02,52,22.10
2012,08,06,02,53,22.10
2012,08,06,02,54,22.00
2012,08,06,02,55,22.00
2012,08,06,02,56,21.90
2012,08,06,02,57,21.90
2012,08,06,02,58,21.90
2012,08,06,02,59,21.80
2012,08,06,03,00,21.80
2012,08,06,03,01,21.80
2012,08,06,03,02,21.70
2012,08,06,03,03,21.70
2012,08,06,03,04,21.70
2012,08,06,03,05,21.60
2012,08,06,03,06,21.60
2012,08,06,03,07,21.60
2012,08,06,03,08,21.60
2012,08,06,03,09,21.60
2012,08,06,03,10,21.50
2012,08,06,03,11,21.50
2012,08,06,03,12,21.50
2012,08,06,03,13,21.50
2012,08,06,03,14,21.50
2012,08,06,03,15,21.50
2012,08,06,03,16,21.50
2012,08,06,03,17,21.40
2012,08,06,03,18,21.40
2012,08,06,03,19,21.40
2012,08,06,03,20,21.40
2012,08,06,03,21,21.40
2012,08,06,03,22,21.30
2012,08,06,03,23,21.30
2012,08,06,03,24,21.30
2012,08,06,03,25,21.20
2012,08,06,03,26,21.20
2012,08,06,03,27,21.10
2012,08,06,03,28,21.00
2012,08,06,03,29,21.00
2012,08,06,03,30,20.90
2012,08,06,03,31,20.90
2012,08,06,03,32,20.80
2012,08,06,03,33,20.80
2012,08,06,03,34,20.70
2012,08,06,03,35,20.60
2012,08,06,03,36,20.50
2012,08,06,03,37,20.50
2012,08,06,03,38,20.40
2012,08,06,03,39,20.40
2012,08,06,03,40,20.40
2012,08,06,03,41,20.30
2012,08,06,03,42,20.30
2012,08,06,03,43,20.20
2012,08,06,03,44,20.20
2012,08,06,03,45,20.20
2012,08,06,03,46,20.10
2012,08,06,03,47,20.10
2012,08,06,03,48,20.10
2012,08,06,03,49,20.00
2012,08,06,03,50,20.00
2012,08,06,03,51,20.00
2012,08,06,03,52,19.90
2012,08,06,03,53,19.90
2012,08,06,03,54,19.80
2012,08,06,03,55,19.80
2012,08,06,03,56,19.70
2012,08,06,03,57,19.70
2012,08,06,03,58,19.60
2012,08,06,03,59,19.60
2012,08,06,04,00,19.60
2012,08,06,04,01,19.50
2012,08,06,04,02,19.50
2012,08,06,04,03,19.40
2012,08,06,04,04,19.40
2012,08,06,04,05,19.40
2012,08,06,04,06,19.30
2012,08,06,04,07,19.30
2012,08,06,04,08,19.30
2012,08,06,04,09,19.30
2012,08,06,04,10,19.30
2012,08,06,04,11,19.30
2012,08,06,04,12,19.30
2012,08,06,04,13,19.30
2012,08,06,04,14,19.30
2012,08,06,04,15,19.20
2012,08,06,04,16,19.20
2012,08,06,04,17,19.20
2012,08,06,04,18,19.20
2012,08,06,04,19,19.20
2012,08,06,04,20,19.20
2012,08,06,04,21,19.20
2012,08,06,04,22,19.20
2012,08,06,04,23,19.10
2012,08,06,04,24,19.10
2012,08,06,04,25,19.00
2012,08,06,04,26,19.00
2012,08,06,04,27,18.90
2012,08,06,04,28,18.90
2012,08,06,04,29,18.80
2012,08,06,04,30,18.80
2012,08,06,04,31,18.80
2012,08,06,04,32,18.80
2012,08,06,04,33,18.80
2012,08,06,04,34,18.80
2012,08,06,04,35,18.80
2012,08,06,04,36,18.80
2012,08,06,04,37,18.80
2012,08,06,04,38,18.70
2012,08,06,04,39,18.70
2012,08,06,04,40,18.70
2012,08,06,04,41,18.70
2012,08,06,04,42,18.60
2012,08,06,04,43,18.60
2012,08,06,04,44,18.60
2012,08,06,04,45,18.50
2012,08,06,04,46,18.50
2012,08,06,04,47,18.50
2012,08,06,04,48,18.50
2012,08,06,04,49,18.40
2012,08,06,04,50,18.40
2012,08,06,04,51,18.40
2012,08,06,04,52,18.40
2012,08,06,04,53,18.40
2012,08,06,04,54,18.40
2012,08,06,04,55,18.40
2012,08,06,04,56,18.40
2012,08,06,04,57,18.40
2012,08,06,04,58,18.30
2012,08,06,04,59,18.30
2012,08,06,05,00,18.30
2012,08,06,05,01,18.40
2012,08,06,05,02,18.50
2012,08,06,05,03,18.60
2012,08,06,05,04,18.70
2012,08,06,05,05,18.80
2012,08,06,05,06,18.80
2012,08,06,05,07,18.90
2012,08,06,05,08,18.90
2012,08,06,05,09,18.90
2012,08,06,05,10,18.90
2012,08,06,05,11,18.80
2012,08,06,05,12,18.80
2012,08,06,05,13,18.70
2012,08,06,05,14,18.70
2012,08,06,05,15,18.60
2012,08,06,05,16,18.60
2012,08,06,05,17,18.60
2012,08,06,05,18,18.50
2012,08,06,05,19,18.50
2012,08,06,05,20,18.50
2012,08,06,05,21,18.50
2012,08,06,05,22,18.50
2012,08,06,05,23,18.50
2012,08,06,05,24,18.40
2012,08,06,05,25,18.40
2012,08,06,05,26,18.40
2012,08,06,05,27,18.40
2012,08,06,05,28,18.40
2012,08,06,05,29,18.40
2012,08,06,05,30,18.40
2012,08,06,05,31,18.30
2012,08,06,05,32,18.30
2012,08,06,05,33,18.30
2012,08,06,05,34,18.20
2012,08,06,05,35,18.20
2012,08,06,05,36,18.20
2012,08,06,05,37,18.20
2012,08,06,05,38,18.30
2012,08,06,05,39,18.30
2012,08,06,05,40,18.30
2012,08,06,05,41,18.40
2012,08,06,05,42,18.40
2012,08,06,05,43,18.40
2012,08,06,05,44,18.40
2012,08,06,05,45,18.40
2012,08,06,05,46,18.30
2012,08,06,05,47,18.40
2012,08,06,05,48,18.40
2012,08,06,05,49,18.40
2012,08,06,05,50,18.40
2012,08,06,05,51,18.50
2012,08,06,05,52,18.50
2012,08,06,05,53,18.50
2012,08,06,05,54,18.50
2012,08,06,05,55,18.50
2012,08,06,05,56,18.50
2012,08,06,05,57,18.50
2012,08,06,05,58,18.50
2012,08,06,05,59,18.40
2012,08,06,06,00,18.40
2012,08,06,06,01,18.40
2012,08,06,06,02,18.40
2012,08,06,06,03,18.40
2012,08,06,06,04,18.40
2012,08,06,06,05,18.30
2012,08,06,06,06,18.30
2012,08,06,06,07,18.30
2012,08,06,06,08,18.30
2012,08,06,06,09,18.30
2012,08,06,06,10,18.20
2012,08,06,06,11,18.20
2012,08,06,06,12,18.20
2012,08,06,06,13,18.20
2012,08,06,06,14,18.20
2012,08,06,06,15,18.20
2012,08,06,06,16,18.20
2012,08,06,06,17,18.10
2012,08,06,06,18,18.10
2012,08,06,06,19,18.10
2012,08,06,06,20,18.10
2012,08,06,06,21,18.10
2012,08,06,06,22,18.10
2012,08,06,06,23,18.10
2012,08,06,06,24,18.10
2012,08,06,06,25,18.10
2012,08,06,06,26,18.20
2012,08,06,06,27,18.20
2012,08,06,06,28,18.20
2012,08,06,06,29,18.20
2012,08,06,06,30,18.20
2012,08,06,06,31,18.20
2012,08,06,06,32,18.20
2012,08,06,06,33,18.20
2012,08,06,06,34,18.20
2012,08,06,06,35,18.20
2012,08,06,06,36,18.20
2012,08,06,06,37,18.30
2012,08,06,06,38,18.30
2012,08,06,06,39,18.30
2012,08,06,06,40,18.30
2012,08,06,06,41,18.30
2012,08,06,06,42,18.30
2012,08,06,06,43,18.40
2012,08,06,06,44,18.40
2012,08,06,06,45,18.40
2012,08,06,06,46,18.40
2012,08,06,06,47,18.40
2012,08,06,06,48,18.40
2012,08,06,06,49,18.40
2012,08,06,06,50,18.40
2012,08,06,06,51,18.40
2012,08,06,06,52,18.50
2012,08,06,06,53,18.50
2012,08,06,06,54,18.50
2012,08,06,06,55,18.50
2012,08,06,06,56,18.50
2012,08,06,06,57,18.50
2012,08,06,06,58,18.50
2012,08,06,06,59,18.60
2012,08,06,07,00,18.60
2012,08,06,07,01,18.70
2012,08,06,07,02,18.80
2012,08,06,07,03,18.80
2012,08,06,07,04,18.90
2012,08,06,07,05,19.00
2012,08,06,07,06,19.10
2012,08,06,07,07,19.20
2012,08,06,07,08,19.20
2012,08,06,07,09,19.30
2012,08,06,07,10,19.40
2012,08,06,07,11,19.50
2012,08,06,07,12,19.50
2012,08,06,07,13,19.60
2012,08,06,07,14,19.70
2012,08,06,07,15,19.80
2012,08,06,07,16,19.80
2012,08,06,07,17,19.90
2012,08,06,07,18,19.90
2012,08,06,07,19,20.00
2012,08,06,07,20,20.00
2012,08,06,07,21,20.10
2012,08,06,07,22,20.10
2012,08,06,07,23,20.20
2012,08,06,07,24,20.20
2012,08,06,07,25,20.30
2012,08,06,07,26,20.30
2012,08,06,07,27,20.30
2012,08,06,07,28,20.40
2012,08,06,07,29,20.40
2012,08,06,07,30,20.50
2012,08,06,07,31,20.50
2012,08,06,07,32,20.60
2012,08,06,07,33,20.60
2012,08,06,07,34,20.70
2012,08,06,07,35,20.80
2012,08,06,07,36,20.80
2012,08,06,07,37,20.90
2012,08,06,07,38,21.00
2012,08,06,07,39,21.10
2012,08,06,07,40,21.20
2012,08,06,07,41,21.30
2012,08,06,07,42,21.40
2012,08,06,07,43,21.40
2012,08,06,07,44,21.50
2012,08,06,07,45,21.60
2012,08,06,07,46,21.70
2012,08,06,07,47,21.70
2012,08,06,07,48,21.80
2012,08,06,07,49,21.80
2012,08,06,07,50,21.80
2012,08,06,07,51,21.80
2012,08,06,07,52,21.90
2012,08,06,07,53,21.90
2012,08,06,07,54,21.90
2012,08,06,07,55,21.80
2012,08,06,07,56,21.80
2012,08,06,07,57,21.80
2012,08,06,07,58,21.80
2012,08,06,07,59,21.70
2012,08,06,08,00,21.70
2012,08,06,08,01,21.70
2012,08,06,08,02,21.70
2012,08,06,08,03,21.70
2012,08,06,08,04,21.70
2012,08,06,08,05,21.70
2012,08,06,08,06,21.70
2012,08,06,08,07,21.70
2012,08,06,08,08,21.70
2012,08,06,08,09,21.70
2012,08,06,08,10,21.70
2012,08,06,08,11,21.70
2012,08,06,08,12,21.70
2012,08,06,08,13,21.60
2012,08,06,08,14,21.60
2012,08,06,08,15,21.60
2012,08,06,08,16,21.60
2012,08,06,08,17,21.70
2012,08,06,08,18,21.70
2012,08,06,08,19,21.70
2012,08,06,08,20,21.80
2012,08,06,08,21,21.80
2012,08,06,08,22,21.90
2012,08,06,08,23,21.90
2012,08,06,08,24,22.00
2012,08,06,08,25,22.10
2012,08,06,08,26,22.10
2012,08,06,08,27,22.20
2012,08,06,08,28,22.30
2012,08,06,08,29,22.30
2012,08,06,08,30,22.30
2012,08,06,08,31,22.30
2012,08,06,08,32,22.30
2012,08,06,08,33,22.40
2012,08,06,08,34,22.40
2012,08,06,08,35,22.40
2012,08,06,08,36,22.50
2012,08,06,08,37,22.50
2012,08,06,08,38,22.60
2012,08,06,08,39,22.60
2012,08,06,08,40,22.70
2012,08,06,08,41,22.80
2012,08,06,08,42,22.90
2012,08,06,08,43,22.90
2012,08,06,08,44,22.90
2012,08,06,08,45,22.90
2012,08,06,08,46,23.00
2012,08,06,08,47,23.00
2012,08,06,08,48,23.00
2012,08,06,08,49,23.10
2012,08,06,08,50,23.10
2012,08,06,08,51,23.10
2012,08,06,08,52,23.10
2012,08,06,08,53,23.10
2012,08,06,08,54,23.10
2012,08,06,08,55,23.10
2012,08,06,08,56,23.10
2012,08,06,08,57,23.10
2012,08,06,08,58,23.10
2012,08,06,08,59,23.20
2012,08,06,09,00,23.20
2012,08,06,09,01,23.20
2012,08,06,09,02,23.20
2012,08,06,09,03,23.10
2012,08,06,09,04,23.10
2012,08,06,09,05,23.10
2012,08,06,09,06,23.00
2012,08,06,09,07,23.00
2012,08,06,09,08,22.90
2012,08,06,09,09,22.90
2012,08,06,09,10,22.90
2012,08,06,09,11,22.90
2012,08,06,09,12,22.90
2012,08,06,09,13,22.90
2012,08,06,09,14,22.90
2012,08,06,09,15,22.90
2012,08,06,09,16,22.90
2012,08,06,09,17,22.90
2012,08,06,09,18,22.90
2012,08,06,09,19,22.90
2012,08,06,09,20,22.90
2012,08,06,09,21,22.90
2012,08,06,09,22,22.90
2012,08,06,09,23,22.90
2012,08,06,09,24,22.90
2012,08,06,09,25,22.90
2012,08,06,09,26,22.90
2012,08,06,09,27,22.90
2012,08,06,09,28,22.90
2012,08,06,09,29,22.90
2012,08,06,09,30,22.90
2012,08,06,09,31,22.90
2012,08,06,09,32,22.90
2012,08,06,09,33,22.90
2012,08,06,09,34,22.90
2012,08,06,09,35,22.90
2012,08,06,09,36,22.90
2012,08,06,09,37,22.90
2012,08,06,09,38,22.90
2012,08,06,09,39,23.00
2012,08,06,09,40,23.00
2012,08,06,09,41,23.00
2012,08,06,09,42,23.00
2012,08,06,09,43,23.10
2012,08,06,09,44,23.10
2012,08,06,09,45,23.10
2012,08,06,09,46,23.10
2012,08,06,09,47,23.10
2012,08,06,09,48,23.10
2012,08,06,09,49,23.10
2012,08,06,09,50,23.10
2012,08,06,09,51,23.10
2012,08,06,09,52,23.10
2012,08,06,09,53,23.20
2012,08,06,09,54,23.20
2012,08,06,09,55,23.20
2012,08,06,09,56,23.20
2012,08,06,09,57,23.20
2012,08,06,09,58,23.20
2012,08,06,09,59,23.20
2012,08,06,10,00,23.20
2012,08,06,10,01,23.20
2012,08,06,10,02,23.20
2012,08,06,10,03,23.20
2012,08,06,10,04,23.20
2012,08,06,10,05,23.20
2012,08,06,10,06,23.10
2012,08,06,10,07,23.10
2012,08,06,10,08,23.00
2012,08,06,10,09,22.90
2012,08,06,10,10,22.90
2012,08,06,10,11,22.80
2012,08,06,10,12,22.70
2012,08,06,10,13,22.70
2012,08,06,10,14,22.60
2012,08,06,10,15,22.60
2012,08,06,10,16,22.60
2012,08,06,10,17,22.60
2012,08,06,10,18,22.60
2012,08,06,10,19,22.60
2012,08,06,10,20,22.60
2012,08,06,10,21,22.60
2012,08,06,10,22,22.60
2012,08,06,10,23,22.50
2012,08,06,10,24,22.50
2012,08,06,10,25,22.40
2012,08,06,10,26,22.40
2012,08,06,10,27,22.30
2012,08,06,10,28,22.30
2012,08,06,10,29,22.30
2012,08,06,10,30,22.30
2012,08,06,10,31,22.20
2012,08,06,10,32,22.20
2012,08,06,10,33,22.20
2012,08,06,10,34,22.10
2012,08,06,10,35,22.10
2012,08,06,10,36,22.10
2012,08,06,10,37,22.10
2012,08,06,10,38,22.10
2012,08,06,10,39,22.10
2012,08,06,10,40,22.20
2012,08,06,10,41,22.20
2012,08,06,10,42,22.20
2012,08,06,10,43,22.30
2012,08,06,10,44,22.30
2012,08,06,10,45,22.30
2012,08,06,10,46,22.40
2012,08,06,10,47,22.40
2012,08,06,10,48,22.40
2012,08,06,10,49,22.40
2012,08,06,10,50,22.50
2012,08,06,10,51,22.50
2012,08,06,10,52,22.60
2012,08,06,10,53,22.60
2012,08,06,10,54,22.60
2012,08,06,10,55,22.60
2012,08,06,10,56,22.60
2012,08,06,10,57,22.60
2012,08,06,10,58,22.60
2012,08,06,10,59,22.60
2012,08,06,11,00,22.60
2012,08,06,11,01,22.60
2012,08,06,11,02,22.60
2012,08,06,11,03,22.60
2012,08,06,11,04,22.60
2012,08,06,11,05,22.50
2012,08,06,11,06,22.50
2012,08,06,11,07,22.40
2012,08,06,11,08,22.40
2012,08,06,11,09,22.30
2012,08,06,11,10,22.30
2012,08,06,11,11,22.30
2012,08,06,11,12,22.20
2012,08,06,11,13,22.30
2012,08,06,11,14,22.30
2012,08,06,11,15,22.40
2012,08,06,11,16,22.50
2012,08,06,11,17,22.60
2012,08,06,11,18,22.60
2012,08,06,11,19,22.60
2012,08,06,11,20,22.60
2012,08,06,11,21,22.60
2012,08,06,11,22,22.60
2012,08,06,11,23,22.50
2012,08,06,11,24,22.50
2012,08,06,11,25,22.50
2012,08,06,11,26,22.50
2012,08,06,11,27,22.50
2012,08,06,11,28,22.40
2012,08,06,11,29,22.40
2012,08,06,11,30,22.40
2012,08,06,11,31,22.40
2012,08,06,11,32,22.40
2012,08,06,11,33,22.30
2012,08,06,11,34,22.20
2012,08,06,11,35,22.10
2012,08,06,11,36,22.10
2012,08,06,11,37,22.10
2012,08,06,11,38,22.10
2012,08,06,11,39,22.10
2012,08,06,11,40,22.10
2012,08,06,11,41,22.20
2012,08,06,11,42,22.20
2012,08,06,11,43,22.30
2012,08,06,11,44,22.30
2012,08,06,11,45,22.30
2012,08,06,11,46,22.20
2012,08,06,11,47,22.10
2012,08,06,11,48,22.10
2012,08,06,11,49,22.10
2012,08,06,11,50,22.20
2012,08,06,11,51,22.20
2012,08,06,11,52,22.10
2012,08,06,11,53,22.10
2012,08,06,11,54,22.10
2012,08,06,11,55,22.10
2012,08,06,11,56,22.10
2012,08,06,11,57,22.20
2012,08,06,11,58,22.30
2012,08,06,11,59,22.30
2012,08,06,12,00,22.40
2012,08,06,12,01,22.40
2012,08,06,12,02,22.50
2012,08,06,12,03,22.50
2012,08,06,12,04,22.50
2012,08,06,12,05,22.50
2012,08,06,12,06,22.60
2012,08,06,12,07,22.60
2012,08,06,12,08,22.70
2012,08,06,12,09,22.80
2012,08,06,12,10,22.80
2012,08,06,12,11,22.90
2012,08,06,12,12,22.90
2012,08,06,12,13,23.00
2012,08,06,12,14,23.00
2012,08,06,12,15,23.00
2012,08,06,12,16,23.10
2012,08,06,12,17,23.20
2012,08,06,12,18,23.30
2012,08,06,12,19,23.30
2012,08,06,12,20,23.40
2012,08,06,12,21,23.50
2012,08,06,12,22,23.60
2012,08,06,12,23,23.60
2012,08,06,12,24,23.70
2012,08,06,12,25,23.70
2012,08,06,12,26,23.80
2012,08,06,12,27,23.80
2012,08,06,12,28,23.90
2012,08,06,12,29,23.90
2012,08,06,12,30,23.90
2012,08,06,12,31,23.90
2012,08,06,12,32,23.90
2012,08,06,12,33,23.90
2012,08,06,12,34,24.00
2012,08,06,12,35,24.10
2012,08,06,12,36,24.10
2012,08,06,12,37,24.20
2012,08,06,12,38,24.30
2012,08,06,12,39,24.30
2012,08,06,12,40,24.40
2012,08,06,12,41,24.50
2012,08,06,12,42,24.60
2012,08,06,12,43,24.80
2012,08,06,12,44,24.90
2012,08,06,12,45,25.00
2012,08,06,12,46,25.10
2012,08,06,12,47,25.20
2012,08,06,12,48,25.10
2012,08,06,12,49,25.10
2012,08,06,12,50,25.00
2012,08,06,12,51,25.00
2012,08,06,12,52,25.00
2012,08,06,12,53,24.90
2012,08,06,12,54,24.80
2012,08,06,12,55,24.80
2012,08,06,12,56,24.60
2012,08,06,12,57,24.50
2012,08,06,12,58,24.40
2012,08,06,12,59,24.40
2012,08,06,13,00,24.30
2012,08,06,13,01,24.20
2012,08,06,13,02,24.20
2012,08,06,13,03,24.10
2012,08,06,13,04,24.10
2012,08,06,13,05,24.10
2012,08,06,13,06,24.00
2012,08,06,13,07,24.00
2012,08,06,13,08,24.00
2012,08,06,13,09,23.90
2012,08,06,13,10,23.90
2012,08,06,13,11,23.90
2012,08,06,13,12,23.90
2012,08,06,13,13,23.90
2012,08,06,13,14,23.80
2012,08,06,13,15,23.80
2012,08,06,13,16,23.80
2012,08,06,13,17,23.80
2012,08,06,13,18,23.70
2012,08,06,13,19,23.70
2012,08,06,13,20,23.60
2012,08,06,13,21,23.50
2012,08,06,13,22,23.30
2012,08,06,13,23,23.20
2012,08,06,13,24,23.20
2012,08,06,13,25,23.10
2012,08,06,13,26,23.10
2012,08,06,13,27,23.10
2012,08,06,13,28,23.10
2012,08,06,13,29,23.10
2012,08,06,13,30,23.10
2012,08,06,13,31,23.10
2012,08,06,13,32,23.10
2012,08,06,13,33,23.10
2012,08,06,13,34,23.10
2012,08,06,13,35,23.10
2012,08,06,13,36,23.10
2012,08,06,13,37,23.10
2012,08,06,13,38,23.10
2012,08,06,13,39,23.10
2012,08,06,13,40,23.20
2012,08,06,13,41,23.20
2012,08,06,13,42,23.20
2012,08,06,13,43,23.20
2012,08,06,13,44,23.20
2012,08,06,13,45,23.20
2012,08,06,13,46,23.20
2012,08,06,13,47,23.20
2012,08,06,13,48,23.20
2012,08,06,13,49,23.20
2012,08,06,13,50,23.20
2012,08,06,13,51,23.30
2012,08,06,13,52,23.30
2012,08,06,13,53,23.30
2012,08,06,13,54,23.40
2012,08,06,13,55,23.40
2012,08,06,13,56,23.50
2012,08,06,13,57,23.60
2012,08,06,13,58,23.60
2012,08,06,13,59,23.70
2012,08,06,14,00,23.70
2012,08,06,14,01,23.70
2012,08,06,14,02,23.70
2012,08,06,14,03,23.70
2012,08,06,14,04,23.60
2012,08,06,14,05,23.60
2012,08,06,14,06,23.60
2012,08,06,14,07,23.50
2012,08,06,14,08,23.50
2012,08,06,14,09,23.40
2012,08,06,14,10,23.40
2012,08,06,14,11,23.40
2012,08,06,14,12,23.40
2012,08,06,14,13,23.40
2012,08,06,14,14,23.40
2012,08,06,14,15,23.40
2012,08,06,14,16,23.40
2012,08,06,14,17,23.40
2012,08,06,14,18,23.50
2012,08,06,14,19,23.60
2012,08,06,14,20,23.60
2012,08,06,14,21,23.70
2012,08,06,14,22,23.70
2012,08,06,14,23,23.80
2012,08,06,14,24,23.80
2012,08,06,14,25,23.80
2012,08,06,14,26,23.90
2012,08,06,14,27,23.90
2012,08,06,14,28,23.90
2012,08,06,14,29,23.90
2012,08,06,14,30,23.90
2012,08,06,14,31,23.90
2012,08,06,14,32,23.90
2012,08,06,14,33,23.90
2012,08,06,14,34,23.90
2012,08,06,14,35,23.90
2012,08,06,14,36,23.90
2012,08,06,14,37,23.90
2012,08,06,14,38,23.90
2012,08,06,14,39,23.90
2012,08,06,14,40,24.00
2012,08,06,14,41,24.00
2012,08,06,14,42,24.00
2012,08,06,14,43,24.00
2012,08,06,14,44,24.00
2012,08,06,14,45,23.90
2012,08,06,14,46,23.90
2012,08,06,14,47,23.90
2012,08,06,14,48,23.90
2012,08,06,14,49,23.80
2012,08,06,14,50,23.80
2012,08,06,14,51,23.80
2012,08,06,14,52,23.80
2012,08,06,14,53,23.70
2012,08,06,14,54,23.70
2012,08,06,14,55,23.70
2012,08,06,14,56,23.70
2012,08,06,14,57,23.70
2012,08,06,14,58,23.60
2012,08,06,14,59,23.60
2012,08,06,15,00,23.50
2012,08,06,15,01,23.50
2012,08,06,15,02,23.50
2012,08,06,15,03,23.50
2012,08,06,15,04,23.50
2012,08,06,15,05,23.50
2012,08,06,15,06,23.50
2012,08,06,15,07,23.60
2012,08,06,15,08,23.60
2012,08,06,15,09,23.60
2012,08,06,15,10,23.60
2012,08,06,15,11,23.70
2012,08,06,15,12,23.70
2012,08,06,15,13,23.70
2012,08,06,15,14,23.70
2012,08,06,15,15,23.70
2012,08,06,15,16,23.70
2012,08,06,15,17,23.70
2012,08,06,15,18,23.70
2012,08,06,15,19,23.70
2012,08,06,15,20,23.60
2012,08,06,15,21,23.50
2012,08,06,15,22,23.40
2012,08,06,15,23,23.30
2012,08,06,15,24,23.20
2012,08,06,15,25,23.10
2012,08,06,15,26,23.10
2012,08,06,15,27,23.10
2012,08,06,15,28,23.00
2012,08,06,15,29,23.00
2012,08,06,15,30,23.00
2012,08,06,15,31,23.00
2012,08,06,15,32,23.00
2012,08,06,15,33,23.00
2012,08,06,15,34,23.00
2012,08,06,15,35,23.00
2012,08,06,15,36,23.00
2012,08,06,15,37,23.00
2012,08,06,15,38,23.00
2012,08,06,15,39,22.90
2012,08,06,15,40,22.90
2012,08,06,15,41,22.90
2012,08,06,15,42,22.80
2012,08,06,15,43,22.80
2012,08,06,15,44,22.80
2012,08,06,15,45,22.80
2012,08,06,15,46,22.80
2012,08,06,15,47,22.80
2012,08,06,15,48,22.80
2012,08,06,15,49,22.90
2012,08,06,15,50,22.90
2012,08,06,15,51,22.90
2012,08,06,15,52,23.00
2012,08,06,15,53,23.00
2012,08,06,15,54,23.10
2012,08,06,15,55,23.10
2012,08,06,15,56,23.10
2012,08,06,15,57,23.20
2012,08,06,15,58,23.10
2012,08,06,15,59,23.10
2012,08,06,16,00,23.10
2012,08,06,16,01,23.10
2012,08,06,16,02,23.10
2012,08,06,16,03,23.20
2012,08,06,16,04,23.20
2012,08,06,16,05,23.20
2012,08,06,16,06,23.10
2012,08,06,16,07,23.10
2012,08,06,16,08,23.10
2012,08,06,16,09,23.00
2012,08,06,16,10,23.00
2012,08,06,16,11,22.90
2012,08,06,16,12,22.90
2012,08,06,16,13,22.90
2012,08,06,16,14,22.90
2012,08,06,16,15,22.90
2012,08,06,16,16,22.80
2012,08,06,16,17,22.80
2012,08,06,16,18,22.80
2012,08,06,16,19,22.70
2012,08,06,16,20,22.70
2012,08,06,16,21,22.70
2012,08,06,16,22,22.70
2012,08,06,16,23,22.60
2012,08,06,16,24,22.60
2012,08,06,16,25,22.60
2012,08,06,16,26,22.50
2012,08,06,16,27,22.50
2012,08,06,16,28,22.40
2012,08,06,16,29,22.40
2012,08,06,16,30,22.40
2012,08,06,16,31,22.40
2012,08,06,16,32,22.40
2012,08,06,16,33,22.40
2012,08,06,16,34,22.40
2012,08,06,16,35,22.40
2012,08,06,16,36,22.50
2012,08,06,16,37,22.50
2012,08,06,16,38,22.50
2012,08,06,16,39,22.50
2012,08,06,16,40,22.50
2012,08,06,16,41,22.60
2012,08,06,16,42,22.60
2012,08,06,16,43,22.60
2012,08,06,16,44,22.60
2012,08,06,16,45,22.60
2012,08,06,16,46,22.70
2012,08,06,16,47,22.70
2012,08,06,16,48,22.70
2012,08,06,16,49,22.70
2012,08,06,16,50,22.70
2012,08,06,16,51,22.70
2012,08,06,16,52,22.60
2012,08,06,16,53,22.60
2012,08,06,16,54,22.40
2012,08,06,16,55,22.30
2012,08,06,16,56,22.20
2012,08,06,16,57,22.00
2012,08,06,16,58,21.90
2012,08,06,16,59,21.80
2012,08,06,17,00,21.70
2012,08,06,17,01,21.70
2012,08,06,17,02,21.60
2012,08,06,17,03,21.60
2012,08,06,17,04,21.60
2012,08,06,17,05,21.60
2012,08,06,17,06,21.60
2012,08,06,17,07,21.60
2012,08,06,17,08,21.60
2012,08,06,17,09,21.70
2012,08,06,17,10,21.70
2012,08,06,17,11,21.70
2012,08,06,17,12,21.70
2012,08,06,17,13,21.70
2012,08,06,17,14,21.70
2012,08,06,17,15,21.70
2012,08,06,17,16,21.80
2012,08,06,17,17,21.80
2012,08,06,17,18,21.80
2012,08,06,17,19,21.80